When you browse on this site, cookies collect data to enhance your experience and personalize the content and advertising you see.
Visit our Privacy Policy to learn more. By continuing to use the site, you agree to this use of cookies and data.
  • In Czech Republic
  • List of Countries
  • For 7 days
  • Water Temperature
  • Satellite Maps
  • Weather Map
  • Weather Widgets
  • user-avatar
    Login

    Hourly Weather Prutz

    Today, 21 January, Monday

    Time Temperature Precipitation Wind Pressure Humidity
    00:00 -9°C° 0.1 mm 0 mps 627 mmHg 88%
    01:00 -8°C° 0 mm 1 mps 628 mmHg 88%
    02:00 -8°C° 0.1 mm 0 mps 628 mmHg 88%
    03:00 -8°C° 0.1 mm 0 mps 627 mmHg 88%
    04:00 -9°C° 0.1 mm 0 mps 627 mmHg 88%
    05:00 -9°C° 0 mm 0 mps 627 mmHg 89%
    06:00 -9°C° 0 mm 0 mps 627 mmHg 89%
    07:00 -8°C° 0 mm 1 mps 628 mmHg 89%
    08:00 -7°C° 0 mm 1 mps 628 mmHg 88%
    09:00 -6°C° 0 mm 1 mps 629 mmHg 88%
    10:00 -5°C° 0 mm 0 mps 629 mmHg 87%
    11:00 -3°C° 0 mm 1 mps 629 mmHg 87%
    12:00 -3°C° 0 mm 1 mps 629 mmHg 86%
    13:00 -4°C° 0 mm 2 mps 629 mmHg 85%
    14:00 -4°C° 0.1 mm 2 mps 629 mmHg 87%
    15:00 -5°C° 0.1 mm 2 mps 629 mmHg 89%
    16:00 -3°C° 0.1 mm 1 mps 628 mmHg 92%
    17:00 -6°C° 0.1 mm 1 mps 628 mmHg 93%
    18:00 -7°C° 0.1 mm 1 mps 627 mmHg 94%
    19:00 -8°C° 0.1 mm 1 mps 627 mmHg 96%
    20:00 -9°C° 0 mm 1 mps 627 mmHg 95%
    21:00 -10°C° 0 mm 1 mps 626 mmHg 94%
    22:00 -11°C° 0 mm 1 mps 626 mmHg 93%
    23:00 -12°C° 0 mm 1 mps 626 mmHg 90%

    Tomorrow, 22 January, Tuesday

    Time Temperature Precipitation Wind Pressure Humidity
    00:00 -12°C° 0 mm 1 mps 626 mmHg 88%
    01:00 -13°C° 0 mm 1 mps 625 mmHg 86%
    02:00 -13°C° 0 mm 1 mps 625 mmHg 83%
    03:00 -13°C° 0 mm 1 mps 624 mmHg 81%
    04:00 -13°C° 0 mm 1 mps 624 mmHg 78%
    05:00 -13°C° 0 mm 1 mps 624 mmHg 75%
    06:00 -12°C° 0 mm 1 mps 623 mmHg 71%
    07:00 -12°C° 0 mm 1 mps 623 mmHg 68%
    08:00 -10°C° 0 mm 1 mps 624 mmHg 69%
    09:00 -9°C° 0 mm 1 mps 624 mmHg 69%
    10:00 -7°C° 0 mm 1 mps 624 mmHg 70%
    11:00 -4°C° 0 mm 1 mps 624 mmHg 66%
    12:00 -4°C° 0 mm 0 mps 624 mmHg 61%
    13:00 -3°C° 0 mm 0 mps 623 mmHg 56%
    14:00 -4°C° 0 mm 0 mps 622 mmHg 64%
    15:00 -5°C° 0 mm 0 mps 621 mmHg 71%
    16:00 -5°C° 0 mm 0 mps 620 mmHg 79%
    17:00 -7°C° 0 mm 1 mps 620 mmHg 77%
    18:00 -8°C° 0 mm 1 mps 619 mmHg 74%
    19:00 -12°C° 0 mm 2 mps 618 mmHg 72%
    20:00 -12°C° 0 mm 2 mps 618 mmHg 69%
    21:00 -12°C° 0 mm 2 mps 618 mmHg 66%
    22:00 -12°C° 0 mm 2 mps 618 mmHg 63%
    23:00 -10°C° 0 mm 2 mps 617 mmHg 63%

    Day after tomorrow, 23 January, Wednesday

    Time Temperature Precipitation Wind Pressure Humidity
    00:00 -10°C° 0 mm 2 mps 617 mmHg 63%
    01:00 -10°C° 0 mm 2 mps 617 mmHg 63%
    02:00 -9°C° 0 mm 1 mps 617 mmHg 65%
    03:00 -9°C° 0 mm 1 mps 616 mmHg 67%
    04:00 -9°C° 0 mm 1 mps 616 mmHg 68%
    05:00 -9°C° 0.1 mm 1 mps 616 mmHg 72%
    06:00 -9°C° 0.1 mm 1 mps 615 mmHg 75%
    07:00 -9°C° 0.1 mm 0 mps 615 mmHg 79%
    08:00 -8°C° 0.1 mm 0 mps 615 mmHg 80%
    09:00 -7°C° 0.1 mm 0 mps 616 mmHg 82%
    10:00 -6°C° 0.1 mm 1 mps 616 mmHg 84%
    11:00 -6°C° 0.1 mm 1 mps 616 mmHg 84%
    12:00 -6°C° 0.1 mm 1 mps 616 mmHg 84%
    13:00 -4°C° 0.1 mm 1 mps 615 mmHg 84%
    14:00 -4°C° 0.2 mm 1 mps 615 mmHg 87%
    15:00 -6°C° 0.2 mm 2 mps 616 mmHg 90%
    16:00 -7°C° 0.2 mm 2 mps 616 mmHg 92%
    17:00 -7°C° 0.1 mm 1 mps 616 mmHg 94%
    18:00 -8°C° 0.1 mm 1 mps 616 mmHg 95%
    19:00 -9°C° 0.1 mm 1 mps 616 mmHg 96%
    20:00 -10°C° 0 mm 1 mps 616 mmHg 95%
    21:00 -11°C° 0 mm 1 mps 616 mmHg 94%
    22:00 -12°C° 0 mm 1 mps 616 mmHg 92%
    23:00 -12°C° 0 mm 1 mps 617 mmHg 90%

    24 January, Thursday

    Time Temperature Precipitation Wind Pressure Humidity
    00:00 -12°C° 0 mm 1 mps 617 mmHg 88%
    01:00 -12°C° 0 mm 1 mps 618 mmHg 85%
    02:00 -12°C° 0 mm 1 mps 618 mmHg 85%
    03:00 -12°C° 0 mm 1 mps 618 mmHg 85%
    04:00 -12°C° 0 mm 1 mps 619 mmHg 85%
    05:00 -12°C° 0 mm 1 mps 619 mmHg 86%
    06:00 -13°C° 0 mm 1 mps 619 mmHg 88%
    07:00 -13°C° 0 mm 1 mps 620 mmHg 89%
    08:00 -12°C° 0 mm 1 mps 621 mmHg 89%
    09:00 -10°C° 0 mm 1 mps 622 mmHg 88%
    10:00 -9°C° 0 mm 1 mps 623 mmHg 88%
    11:00 -8°C° 0 mm 1 mps 623 mmHg 88%
    12:00 -8°C° 0 mm 2 mps 623 mmHg 87%
    13:00 -7°C° 0 mm 2 mps 623 mmHg 87%
    14:00 -7°C° 0 mm 2 mps 623 mmHg 88%
    15:00 -8°C° 0 mm 2 mps 623 mmHg 89%
    16:00 -8°C° 0 mm 2 mps 623 mmHg 91%
    17:00 -10°C° 0 mm 2 mps 623 mmHg 93%
    18:00 -10°C° 0 mm 1 mps 623 mmHg 95%
    19:00 -12°C° 0 mm 1 mps 623 mmHg 97%
    20:00 -12°C° 0 mm 1 mps 624 mmHg 96%
    21:00 -13°C° 0 mm 1 mps 624 mmHg 95%
    22:00 -14°C° 0 mm 1 mps 624 mmHg 94%
    23:00 -14°C° 0 mm 1 mps 624 mmHg 94%

    25 January, Friday

    Time Temperature Precipitation Wind Pressure Humidity
    00:00 -14°C° 0 mm 1 mps 624 mmHg 94%
    01:00 -14°C° 0 mm 1 mps 624 mmHg 93%
    02:00 -14°C° 0 mm 1 mps 624 mmHg 93%
    03:00 -14°C° 0 mm 1 mps 624 mmHg 93%
    04:00 -14°C° 0 mm 1 mps 624 mmHg 92%
    05:00 -14°C° 0 mm 1 mps 624 mmHg 91%
    06:00 -14°C° 0 mm 1 mps 624 mmHg 91%
    07:00 -14°C° 0 mm 1 mps 625 mmHg 90%
    08:00 -12°C° 0 mm 1 mps 625 mmHg 89%
    09:00 -10°C° 0 mm 1 mps 626 mmHg 87%
    10:00 -8°C° 0 mm 1 mps 627 mmHg 86%
    11:00 -7°C° 0 mm 2 mps 627 mmHg 84%
    12:00 -6°C° 0 mm 2 mps 627 mmHg 81%
    13:00 -5°C° 0 mm 2 mps 627 mmHg 79%
    14:00 -5°C° 0 mm 2 mps 627 mmHg 82%
    15:00 -5°C° 0 mm 2 mps 627 mmHg 86%
    16:00 -6°C° 0 mm 2 mps 627 mmHg 90%
    17:00 -7°C° 0 mm 2 mps 627 mmHg 90%
    18:00 -8°C° 0 mm 2 mps 627 mmHg 90%
    19:00 -9°C° 0 mm 2 mps 627 mmHg 91%
    20:00 -9°C° 0 mm 2 mps 627 mmHg 91%
    21:00 -9°C° 0 mm 2 mps 627 mmHg 91%
    22:00 -8°C° 0 mm 1 mps 627 mmHg 91%
    23:00 -7°C° 0 mm 1 mps 627 mmHg 92%

    26 January, Saturday

    Time Temperature Precipitation Wind Pressure Humidity
    00:00 -7°C° 0 mm 1 mps 627 mmHg 92%
    01:00 -7°C° 0 mm 1 mps 627 mmHg 92%
    02:00 -6°C° 0.1 mm 1 mps 627 mmHg 92%
    03:00 -6°C° 0.1 mm 1 mps 627 mmHg 92%
    04:00 -6°C° 0.1 mm 1 mps 627 mmHg 92%
    05:00 -6°C° 0 mm 1 mps 627 mmHg 92%
    06:00 -6°C° 0 mm 1 mps 627 mmHg 92%
    07:00 -4°C° 0 mm 1 mps 627 mmHg 92%
    08:00 -3°C° 0 mm 1 mps 627 mmHg 91%
    09:00 -2°C° 0 mm 1 mps 628 mmHg 90%
    10:00 0°C° 0 mm 1 mps 628 mmHg 90%
    11:00 +1°C° 0 mm 1 mps 628 mmHg 91%
    12:00 +1°C° 0 mm 1 mps 627 mmHg 92%
    13:00 +2°C° 0 mm 1 mps 627 mmHg 93%
    14:00 +2°C° 0 mm 1 mps 627 mmHg 92%
    15:00 +2°C° 0 mm 1 mps 626 mmHg 90%
    16:00 +1°C° 0 mm 0 mps 626 mmHg 89%
    17:00 0°C° 0 mm 1 mps 625 mmHg 89%
    18:00 -1°C° 0 mm 1 mps 625 mmHg 89%
    19:00 -3°C° 0 mm 1 mps 624 mmHg 89%
    20:00 -5°C° 0 mm 2 mps 624 mmHg 87%
    21:00 -5°C° 0 mm 2 mps 624 mmHg 85%
    22:00 -5°C° 0 mm 2 mps 624 mmHg 83%
    23:00 -5°C° 0 mm 2 mps 623 mmHg 83%
    Show more